Sacramento, CA

8:05 PM PDT on August 23, 2016 (GMT -0700)
Sacramento Executive

Weather History for KSAC - April, 2013

Change the Weather History Date:

Monday, April 1, 2013

  Actual Average Record
Temperature  
Mean Temperature 61 °F -  
Max Temperature 69 °F 67 °F 86 °F (1966)
Min Temperature 52 °F 45 °F 33 °F (1975)
Degree Days  
Heating Degree Days 4    
Cooling Degree Days 0    
Growing Degree Days 10 (Base 50)    
Moisture  
Dew Point 51 °F    
Average Humidity 73    
Maximum Humidity 93    
Minimum Humidity 52    
Precipitation  
Precipitation 0.03 in 0.05 in 1.35 in (2014)
Month to date precipitation 0.03 0.05  
Year to date precipitation 2.73 9.91  
Since 1 July precipitation 14.02  
Sea Level Pressure  
Sea Level Pressure 30.12 in    
Wind  
Wind Speed 2 mph (SW)    
Max Wind Speed 10 mph    
Max Gust Speed 15 mph    
Visibility 8 miles    
Events Fog    
T = Trace of Precipitation, MM = Missing Value Source: NWS Daily Summary

Daily Weather History Graph

Daily Weather History Graph

Search for Another Location

Airport or City:

Trip Planner

Search our weather history database for the weather conditions in past years. The results will help you decide how hot, cold, wet, or windy it might be!

Date:

Astronomy

Apr. 01, 2013 Rise Set
Actual Time 6:50 AM PDT 7:29 PM PDT
Civil Twilight 6:23 AM PDT 7:56 PM PDT
Nautical Twilight 5:52 AM PDT 8:28 PM PDT
Astronomical Twilight 5:19 AM PDT 9:00 PM PDT
Moon 12:39 AM PDT (4/1) 10:45 AM PDT (4/1)
Length of Visible Light 13h 32m
Length of Day
12h 39m
Waning Gibbous, 66% of the Moon is Illuminated
Apr 1
Waning Gibbous
Apr 2
Last Quarter
Apr 10
New
Apr 18
First Quarter
Apr 25
Full

Hourly Weather History & Observations

Time (PDT) Temp. Dew Point Humidity Pressure Visibility Wind Dir Wind Speed Gust Speed Precip Events Conditions
12:53 AM 55.9 °F 52.0 °F 87% 30.07 in 10.0 mi SSE 4.6 mph - 0.01 in   Overcast
1:53 AM 55.0 °F 52.0 °F 89% 30.08 in 10.0 mi SSE 3.5 mph - 0.03 in   Overcast
2:53 AM 55.4 °F 53.6 °F 94% 30.08 in 10.0 mi SSE 3.5 mph - N/A   Overcast
3:53 AM 55.0 °F 52.0 °F 89% 30.08 in 10.0 mi Calm Calm - N/A   Overcast
4:53 AM 54.0 °F 52.0 °F 93% 30.08 in 10.0 mi Calm Calm - N/A   Overcast
5:49 AM 53.6 °F 51.8 °F 94% 30.09 in 1.8 mi Calm Calm - N/A   Overcast
5:53 AM 53.1 °F 51.1 °F 93% 30.09 in 1.5 mi Calm Calm - N/A   Mostly Cloudy
6:21 AM 53.6 °F 51.8 °F 94% 30.10 in 7.0 mi Calm Calm - N/A   Overcast
6:53 AM 53.1 °F 51.1 °F 93% 30.11 in 3.0 mi Calm Calm - N/A   Overcast
7:05 AM 53.6 °F 51.8 °F 94% 30.11 in 1.8 mi Calm Calm - N/A   Mostly Cloudy
7:26 AM 53.6 °F 51.8 °F 94% 30.11 in 0.5 mi Calm Calm - N/A Fog Fog
7:38 AM 53.6 °F 51.8 °F 94% 30.12 in 2.0 mi Calm Calm - N/A   Scattered Clouds
7:46 AM 53.6 °F 51.8 °F 94% 30.12 in 4.0 mi Calm Calm - N/A   Mostly Cloudy
7:53 AM 54.0 °F 52.0 °F 93% 30.12 in 5.0 mi Calm Calm - N/A   Scattered Clouds
8:53 AM 57.9 °F 53.1 °F 84% 30.14 in 10.0 mi Calm Calm - N/A   Overcast
9:24 AM 57.2 °F 51.8 °F 82% 30.14 in 10.0 mi Calm Calm - N/A   Overcast
9:48 AM 59.0 °F 51.8 °F 77% 30.15 in 10.0 mi Calm Calm - N/A   Mostly Cloudy
9:53 AM 59.0 °F 52.0 °F 78% 30.15 in 10.0 mi Calm Calm - N/A   Mostly Cloudy
10:07 AM 60.8 °F 51.8 °F 72% 30.15 in 10.0 mi Calm Calm - N/A   Scattered Clouds
10:53 AM 63.0 °F 51.1 °F 65% 30.15 in 10.0 mi Calm Calm - N/A   Overcast
11:53 AM 62.6 °F 50.0 °F 63% 30.15 in 10.0 mi WNW 3.5 mph - N/A   Overcast
12:53 PM 64.0 °F 48.9 °F 58% 30.14 in 10.0 mi Calm Calm - N/A   Overcast
1:53 PM 66.0 °F 48.9 °F 54% 30.13 in 10.0 mi SSW 3.5 mph - N/A   Overcast
2:53 PM 66.2 °F 50.0 °F 56% 30.12 in 10.0 mi SW 4.6 mph - N/A   Mostly Cloudy
3:53 PM 68.0 °F 51.8 °F 56% 30.11 in 10.0 mi WSW 8.1 mph - N/A   Overcast
4:53 PM 68.0 °F 50.0 °F 52% 30.10 in 10.0 mi WSW 6.9 mph - N/A   Clear
5:53 PM 68.0 °F 48.9 °F 50% 30.10 in 10.0 mi NW 5.8 mph - N/A   Clear
6:53 PM 64.9 °F 46.9 °F 52% 30.11 in 10.0 mi SW 4.6 mph - N/A   Partly Cloudy
7:53 PM 62.1 °F 48.9 °F 62% 30.12 in 10.0 mi SW 6.9 mph - N/A   Scattered Clouds
8:53 PM 60.1 °F 50.0 °F 69% 30.13 in 10.0 mi SW 5.8 mph - N/A   Clear
9:53 PM 57.9 °F 50.0 °F 75% 30.13 in 10.0 mi Calm Calm - N/A   Clear
10:53 PM 55.0 °F 48.9 °F 80% 30.12 in 10.0 mi SW 5.8 mph - N/A   Clear
11:53 PM 52.0 °F 48.0 °F 86% 30.12 in 10.0 mi Calm Calm - N/A   Clear